This demonstration page uses our WeatherBlox Daily Observations layout. Learn more.

Left ArrowRight Arrow

36.17497, -115.13722

Hourly Observations for January 8, 2019

Temp ( °F °C ) Dew Point ( °F °C ) Humidity (%) Winds ( mph kmh ) Pressure ( in mb ) Visibility ( mi km ) Precip ( " mm )
12:53 am 00:53 Cloudy 48 8.9 42 5.6 80 80 NE 3 6 30.37 1028 10 16.0934 0 0
1:53 am 01:53 Mostly Cloudy 47 8.3 41 5 80 80 N 6 9 30.38 1029 10 16.0934 0 0
2:53 am 02:53 Clear 45 7.2 39 3.9 80 80 NNW 9 15 30.37 1028 10 16.0934 0 0
3:53 am 03:53 Clear 44 6.7 39 3.9 83 83 WNW 5 7 30.36 1028 10 16.0934 0 0
4:53 am 04:53 Clear 45 7.2 38 3.3 77 77 N 6 9 30.35 1028 10 16.0934 0 0
5:53 am 05:53 Clear 44 6.7 37 2.8 76 76 N 9 15 30.35 1028 10 16.0934 0 0
6:53 am 06:53 Sunny 43 6.1 37 2.8 80 80 N 10 17 30.34 1027 10 16.0934 0 0
7:53 am 07:53 Sunny 44 6.7 37 2.8 76 76 NNW 3 6 30.35 1028 10 16.0934 0 0
8:53 am 08:53 Sunny 47 8.3 37 2.8 69 69 W 5 7 30.35 1028 10 16.0934 0 0
9:53 am 09:53 Sunny 50 10 38 3.3 63 63 Calm 30.34 1027 10 16.0934 0 0
10:53 am 10:53 Sunny 54 12.2 38 3.3 55 55 Calm 30.29 1026 10 16.0934 0 0
11:53 am 11:53 Sunny 55 12.8 38 3.3 53 53 Calm 30.25 1025 10 16.0934 0 0
12:53 pm 12:53 Sunny 56 13.3 37 2.8 49 49 S 5 7 30.24 1024 10 16.0934 0 0
1:53 pm 13:53 Sunny 57 13.9 37 2.8 47 47 S 6 9 30.23 1024 10 16.0934 0 0
2:53 pm 14:53 Sunny 58 14.4 37 2.8 46 46 ESE 6 9 30.22 1023 10 16.0934 0 0
3:53 pm 15:53 Sunny 58 14.4 36 2.2 44 44 SSE 9 15 30.22 1023 10 16.0934 0 0
4:53 pm 16:53 Clear 56 13.3 36 2.2 47 47 SSW 3 6 30.22 1023 10 16.0934 0 0
5:53 pm 17:53 Clear 55 12.8 36 2.2 49 49 SW 5 7 30.21 1023 10 16.0934 0 0
6:53 pm 18:53 Clear 53 11.7 36 2.2 52 52 Calm 30.22 1023 10 16.0934 0 0
7:53 pm 19:53 Clear 51 10.6 36 2.2 56 56 Calm 30.23 1024 10 16.0934 0 0
8:53 pm 20:53 Clear 49 9.4 37 2.8 64 64 Calm 30.24 1024 10 16.0934 0 0
9:53 pm 21:53 Clear 48 8.9 38 3.3 68 68 Calm 30.25 1024 10 16.0934 0 0
10:53 pm 22:53 Clear 48 8.9 38 3.3 68 68 Calm 30.23 1024 10 16.0934 0 0
11:53 pm 23:53 Clear 46 7.8 37 2.8 71 71 Calm 30.22 1023 10 16.0934 0 0

Powered by AerisWeather